Regional Weather Roundup
Issued by NWS New Orleans/Baton Rouge, LA

Home | Current Version | Previous Version | Graphics & Text | Print | Product List | Glossary On
Versions: 1 2 3 4 5 6 7 8 9 10 11 12 13 14 15 16 17 18 19 20 21 22 23 24 25 26 27 28 29 30 31 32 33 34 35 36 37 38 39 40 41 42 43 44 45 46 47 48 49 50
498
ASUS44 KLIX 302310
RWRLIX
NEW ORLEANS REGIONAL WEATHER ROUNDUP
NATIONAL WEATHER SERVICE NEW ORLEANS LA
600 PM CDT WED JUL 30 2014

NOTE: "FAIR" INDICATES FEW OR NO CLOUDS BELOW 12,000 FEET WITH NO
      SIGNIFICANT WEATHER AND/OR OBSTRUCTIONS TO VISIBILITY.
      SKY/WX - SKY CONDITION AND SIGNIFICANT WEATHER.
      TMP - AIR TEMPERATURE.     DP    - DEWPOINT TEMPERATURE.
      RH  - RELATIVE HUMIDITY.   PRES  - PRESSURE.
      HI  - HEAT INDEX.          WCI   - WIND CHILL INDEX.

*  THESE STATIONS ARE NOT NWS OR FAA STATIONS AND ARE NOT UNDER
   NWS QUALITY CONTROL.

LAZ038-040-048-061>063-065>067-069-310000-
SOUTHEAST LOUISIANA

CITY           SKY/WX    TMP DP  RH WIND       PRES   REMARKS
N.O. AUDUBON     N/A     87  62  41 MISG        N/A
N.O. INTL ARPT MOSUNNY   86  61  42 N7        29.99F
N.O. LAKEFRONT SUNNY     84  62  47 W8        30.00F
N.O. DOWNTOWN*   N/A     86  57  37 NW7       30.00F
SLIDELL        SUNNY     86  59  39 N8        29.99F
BATON ROUGE    SUNNY     87  62  43 NE7       30.00F
BOOTHVILLE     SUNNY     82  63  52 E5        30.00F
BELLE CHASSE   MOSUNNY   87  56  34 N5        29.99S
BOGALUSA*        N/A     86  58  38 N5        30.02S
GALLIANO*      NOT AVBL
NEW ROADS*       N/A     84  65  52 NW7       30.01F
GONZALES*        N/A     86  64  46 N5        29.99S
HAMMOND*       SUNNY     88  55  33 N6        30.02S
HOUMA*         MOSUNNY   91  61  35 NW6       29.99F
PORT FOURCHON* PTCLDY    84  70  61 SE7       30.00F

$$

MSZ070-080>082-310000-
SOUTHERN MISSISSIPPI

CITY           SKY/WX    TMP DP  RH WIND       PRES   REMARKS
MCCOMB         SUNNY     84  57  39 N7        30.03S
GULFPORT       SUNNY     90  56  31 N7        29.98F
BILOXI         SUNNY     83  65  53 SW6       29.99S
PASCAGOULA     SUNNY     85  61  44 VRB6      29.99S
STENNIS ARPT*  SUNNY    N/A N/A N/A NE5       29.99F

$$

COASTAL OBSERVATIONS
LAKE AND NEARSHORE STATIONS

STATION/POSITION TIME  TEMP    WIND        PRES    WAVE
                       AIR SEA DIR/SP/G            HT/PER
                 (UTC) (F)     (DEG/KT/KT) (MB)    (FT/S)
PASCAGOULA       2300   84     200/  6/  8 1015.0
WAVELAND YACHT   2300   84      10/  7/  9 1015.0
GRAND ISLE       2300   85 87  100/  5/  8 1016.2
SOUTHWEST PASS   2300   94 86   30/  6/  8 1015.9
NEW CANAL        2300   84 85  330/  1/  3 1016.3
SHELL BEACH      2300   84 83  290/  2/  4 1015.7

OFFSHORE STATIONS

STATION/POSITION TIME  TEMP    WIND        PRES    WAVE
                       AIR SEA DIR/SP/G            HT/PER
                 (UTC) (F)     (DEG/KT/KT) (MB)    (FT/S)
64 S DAUPHIN ISL 2202   81 88   20/  6/  8 1015.6

$$




USA.gov is the U.S. government's official web portal to all federal, state and local government web resources and services.